Dover FAWN current weather conditions

sailwx.info

Wind from 225 at 0 knots

Air temperature 24.5° C
Dewpoint 24.0° C

Last reported at 2019-Jul-17 04:00 UTC.
Time now 2019-Jul-17 05:01 UTC

Location: N 28°01' W 082°14'.
View on Google Maps.

See reports from other nearby stations

  
Tides and Currents Weather Stations Pressure Air Temp Water Temp Dewpoint Dewpoint Depression Visibility Wind Speed Wind Dir Waves Ship Positions
date/time (UTC)wind fromknots sea level pressurealtimeterstation pressurevisibilityair tempwater tempwave heightnotes
2019-Jul-17 04:00 225 0 24.5
2019-Jul-17 03:45 155 0 24.5
2019-Jul-17 03:30 163 1 24.4
2019-Jul-17 03:15 085 0 24.4
2019-Jul-17 03:00 064 1 24.5
2019-Jul-17 02:45 034 1 24.5
2019-Jul-17 02:30 043 1 24.5
2019-Jul-17 02:15 019 1 24.4
2019-Jul-17 02:00 348 2 24.3
2019-Jul-17 01:45 183 0 24.4
2019-Jul-17 01:30 169 1 24.4
2019-Jul-17 01:15 348 1 24.3
2019-Jul-17 01:00 036 1 24.3
2019-Jul-17 00:45 176 2 23.7
2019-Jul-17 00:30 034 1 23.7
2019-Jul-17 00:15 071 3 24.6
2019-Jul-17 00:00 240 1 24.8
2019-Jul-16 23:45 258 1 24.7
2019-Jul-16 23:30 211 1 24.6
2019-Jul-16 23:15 196 5 24.7
2019-Jul-16 23:00 171 3 30.7
2019-Jul-16 22:45 230 2 32.3
2019-Jul-16 22:30 359 2 33.7
2019-Jul-16 22:15 111 1 35.3
2019-Jul-16 22:00 108 0 33.9
2019-Jul-16 21:45 083 1 35.0
2019-Jul-16 21:30 046 2 35.2
2019-Jul-16 21:15 069 2 34.8
2019-Jul-16 21:00 022 2 35.2
2019-Jul-16 20:45 018 1 34.7
2019-Jul-16 20:30 078 1 34.1
2019-Jul-16 20:15 115 1 33.8
2019-Jul-16 20:00 081 2 35.1
2019-Jul-16 19:45 101 1 34.0
2019-Jul-16 19:30 068 1 34.5
2019-Jul-16 19:15 072 2 34.8
2019-Jul-16 19:00 088 1 34.3
2019-Jul-16 18:45 043 2 34.3
2019-Jul-16 18:30 070 2 34.2
2019-Jul-16 18:15 079 1 34.4
2019-Jul-16 18:00 112 1 34.4
2019-Jul-16 17:45 111 1 34.2
2019-Jul-16 17:30 065 2 34.0
2019-Jul-16 17:15 081 2 33.9
2019-Jul-16 17:00 141 1 33.6
2019-Jul-16 16:45 018 3 32.6
2019-Jul-16 16:30 039 2 32.9
2019-Jul-16 16:15 074 2 32.3
2019-Jul-16 16:00 061 2 32.2
2019-Jul-16 15:45 130 1 32.2
2019-Jul-16 15:30 152 1 31.9
2019-Jul-16 15:15 140 1 31.9
2019-Jul-16 15:00 196 1 30.9
2019-Jul-16 14:45 192 2 31.0
2019-Jul-16 14:30 182 2 30.6
2019-Jul-16 14:15 169 1 30.4
2019-Jul-16 14:00 167 2 29.9
2019-Jul-16 13:45 192 2 29.3
2019-Jul-16 13:30 171 2 28.9
2019-Jul-16 13:15 172 2 28.2
2019-Jul-16 13:00 172 2 27.8
2019-Jul-16 12:45 169 2 27.3
2019-Jul-16 12:30 169 1 26.8
2019-Jul-16 12:15 158 1 26.1
2019-Jul-16 12:00 162 1 25.5
2019-Jul-16 11:45 170 1 25.0
2019-Jul-16 11:30 145 0 24.8
2019-Jul-16 11:00 099 0 24.5
2019-Jul-16 10:45 168 0 24.5
2019-Jul-16 10:30 158 0 24.5
2019-Jul-16 10:15 158 0 24.7
2019-Jul-16 10:00 130 0 24.7
2019-Jul-16 09:45 175 0 24.8
2019-Jul-16 09:30 111 0 24.7
2019-Jul-16 09:15 110 0 24.7
2019-Jul-16 09:00 104 0 24.6
2019-Jul-16 08:45 121 0 24.6
2019-Jul-16 08:30 119 0 24.5
2019-Jul-16 08:15 174 0 24.6
2019-Jul-16 08:00 186 0 24.6
2019-Jul-16 07:45 058 0 24.7
2019-Jul-16 07:30 093 0 24.6
2019-Jul-16 07:15 115 0 24.6
2019-Jul-16 07:00 198 0 24.6
2019-Jul-16 06:45 054 0 24.7
2019-Jul-16 06:30 030 0 24.8
2019-Jul-16 06:15 145 0 24.9
2019-Jul-16 06:00 141 0 24.9
2019-Jul-16 05:45 074 0 25.1
2019-Jul-16 05:30 050 0 25.2
2019-Jul-16 05:15 071 1 25.3
2019-Jul-16 05:00 068 1 25.4
2019-Jul-16 04:45 066 1 25.4
2019-Jul-16 04:30 076 0 25.5
2019-Jul-16 04:15 082 0 25.6
2019-Jul-16 04:00 060 1 25.7
2019-Jul-16 03:45 088 0 25.7
2019-Jul-16 03:30 090 0 25.9
2019-Jul-16 03:15 065 0 25.9
2019-Jul-16 03:00 017 1 25.9
2019-Jul-16 02:45 053 1 25.9
2019-Jul-16 02:30 127 0 26.2
2019-Jul-16 02:15 091 0 26.5
2019-Jul-16 02:00 001 1 26.6
2019-Jul-16 01:45 016 0 26.7
2019-Jul-16 01:30 055 1 26.7
2019-Jul-16 01:15 26.7
2019-Jul-16 01:00 356 1 26.5
2019-Jul-16 00:45 325 0 26.6
2019-Jul-16 00:30 179 0 26.9
2019-Jul-16 00:15 230 1 27.3
2019-Jul-16 00:00 275 2 27.6
2019-Jul-15 23:45 349 1 27.6
2019-Jul-15 23:30 325 1 27.8
2019-Jul-15 23:15 334 1 27.8
2019-Jul-15 23:00 314 3 27.9
2019-Jul-15 22:45 310 4 28.2
2019-Jul-15 22:30 241 2 28.1
2019-Jul-15 22:15 248 0 28.3
2019-Jul-15 22:00 109 0 28.2
2019-Jul-15 21:45 147 1 28.4
2019-Jul-15 21:30 140 2 30.2
2019-Jul-15 21:15 130 3 31.9
2019-Jul-15 21:00 096 2 34.2
2019-Jul-15 20:45 039 2 34.8
2019-Jul-15 20:30 045 3 34.9
2019-Jul-15 20:15 082 1 35.4
2019-Jul-15 20:00 075 2 34.0
2019-Jul-15 19:45 064 1 35.0
2019-Jul-15 19:30 069 2 35.0
2019-Jul-15 19:15 027 3 34.3
2019-Jul-15 19:00 040 3 34.5
2019-Jul-15 18:45 040 2 34.2
2019-Jul-15 18:30 037 3 33.4
2019-Jul-15 18:15 063 2 33.8
2019-Jul-15 18:00 121 1 34.9
2019-Jul-15 17:45 085 2 34.3
2019-Jul-15 17:30 110 1 33.9
2019-Jul-15 17:15 160 1 33.9
2019-Jul-15 17:00 102 1 34.4
2019-Jul-15 16:45 083 1 34.0
2019-Jul-15 16:30 085 1 33.6
2019-Jul-15 16:15 168 1 32.9
2019-Jul-15 16:00 025 2 32.7
2019-Jul-15 15:45 095 2 32.8
2019-Jul-15 15:30 127 1 32.4
2019-Jul-15 15:15 119 1 32.3
2019-Jul-15 15:00 087 2 31.8
2019-Jul-15 14:45 106 1 31.6
2019-Jul-15 14:30 171 1 30.9
2019-Jul-15 14:15 164 2 30.4
2019-Jul-15 14:00 165 1 30.1
2019-Jul-15 13:45 183 2 29.3
2019-Jul-15 13:30 173 1 28.8
2019-Jul-15 13:15 187 1 28.3
2019-Jul-15 13:00 174 1 27.8
2019-Jul-15 12:45 145 1 27.0
2019-Jul-15 12:30 129 0 26.0
2019-Jul-15 12:15 118 0 25.4
2019-Jul-15 12:00 148 0 24.9
2019-Jul-15 11:45 052 0 24.6
2019-Jul-15 11:30 332 0 24.3
2019-Jul-15 11:15 323 0 24.1
2019-Jul-15 11:00 062 0 24.1
2019-Jul-15 10:45 177 0 24.1
2019-Jul-15 10:30 251 0 24.2
2019-Jul-15 10:15 305 0 24.3
2019-Jul-15 10:00 072 0 24.2
2019-Jul-15 09:45 168 0 24.3
2019-Jul-15 09:30 194 0 24.3
2019-Jul-15 09:15 081 0 24.4
2019-Jul-15 09:00 134 0 24.5
2019-Jul-15 08:45 105 0 24.6
2019-Jul-15 08:30 133 0 24.6
2019-Jul-15 08:15 143 0 24.6
2019-Jul-15 08:00 126 0 24.6
2019-Jul-15 07:45 109 0 24.7
2019-Jul-15 07:30 113 0 24.7
2019-Jul-15 07:15 111 0 24.9
2019-Jul-15 07:00 128 0 25.0
2019-Jul-15 06:45 164 0 25.1
2019-Jul-15 06:30 144 0 25.4
2019-Jul-15 06:15 167 0 25.7
2019-Jul-15 06:00 126 0 25.9
2019-Jul-15 05:45 107 0 26.0
2019-Jul-15 05:30 116 0 26.3
2019-Jul-15 05:15 116 1 26.5
2019-Jul-15 05:00 114 0 26.6